Location: Valdosta
(30.8330°N, 83.2790°W)
Time: 10:11:40
(UTC-04:00)

Amateur Radio Satellites - All Passes

Search period start: 27 May 2016 09:41
Search period end: 28 May 2016 09:41
Location: Valdosta, 30.8330°N, 83.2790°W

Satellite Date Start Highest point End Downlink Frequencies (MHz)
Time Altitude Azimuth
PCSat 27 May 09:46:13 09:51:04 35° 108° (ESE) 09:55:57 145.827
UWE-3 27 May 09:51:01 09:54:16 21° 97° (E) 09:57:33 435.000/436.395/437.385
SO-50 27 May 09:55:11 09:58:43 21° 53° (NE) 10:02:11 436.795
FUNcube-1 27 May 09:57:18 09:59:45 15° 95° (E) 10:02:15 145.935
CINEMA 3 27 May 10:04:38 10:08:30 39° 286° (WNW) 10:12:23 145.822/145.860
O/OREOS (USA 219) 27 May 10:07:36 10:12:09 68° 107° (ESE) 10:16:41 437.305
ANTELSAT 27 May 10:10:05 10:12:07 13° 69° (ENE) 10:14:07 437.575/2403.000
CANX-2 27 May 10:11:28 10:15:13 30° 287° (WNW) 10:18:59 2200.000
PRISM 27 May 10:12:59 10:15:50 18° 264° (W) 10:18:42 437.425
SEEDS 27 May 10:14:54 10:18:57 45° 285° (WNW) 10:23:01 437.485
JUGNU 27 May 10:16:44 10:21:36 26° 187° (S) 10:26:27 437.505
SRMSAT 27 May 10:20:29 10:25:26 27° 175° (S) 10:30:21 437.500
CUTE 1.7 + AOD 2 27 May 10:39:41 10:42:27 17° 290° (WNW) 10:45:12 437.475
Oscar 11 27 May 10:40:17 10:44:37 68° 101° (E) 10:48:56 145.826/435.025
AUBIESAT-1 27 May 10:44:00 10:44:39 10° 295° (WNW) 10:45:19 437.475
ZACube-1 27 May 10:53:31 10:57:44 88° 109° (ESE) 11:02:01 437.345
CUBEBUG 2 27 May 10:57:22 11:01:07 33° 286° (WNW) 11:04:55 437.445
UNISAT 6 27 May 11:02:50 11:07:11 60° 76° (ENE) 11:11:27 437.425
COMPASS 1 27 May 11:02:58 11:05:46 18° 290° (WNW) 11:08:34 437.405
GONETS M04 27 May 11:04:48 11:13:00 48° 271° (W) 11:21:12
AAUSAT CUBESAT 2 27 May 11:05:42 11:08:47 20° 289° (WNW) 11:11:52 437.432
HUMSAT D 27 May 11:06:20 11:09:45 24° 97° (E) 11:13:09 437.325/437.525
TIGRISAT 27 May 11:10:30 11:14:53 70° 76° (ENE) 11:19:10 435.000
NANOSAT C BR1 27 May 11:15:03 11:16:12 11° 67° (ENE) 11:17:20 145.865
Cosmos 2499 27 May 11:17:03 11:25:38 66° 268° (W) 11:34:23 435.465 / 435.565
HO-68 27 May 11:20:52 11:25:35 19° 298° (WNW) 11:30:18 435.675
UWE-3 27 May 11:27:21 11:30:35 22° 288° (WNW) 11:33:53 435.000/436.395/437.385
BEESAT 2 27 May 11:28:21 11:30:25 14° 109° (ESE) 11:32:31 435.950
PCSat 27 May 11:30:03 11:34:27 25° 303° (WNW) 11:38:52 145.827
FUNcube-1 27 May 11:32:17 11:36:00 31° 286° (WNW) 11:39:47 145.935
SO-50 27 May 11:35:08 11:39:12 32° 249° (WSW) 11:43:10 436.795
DELFI C3 27 May 11:38:32 11:42:25 46° 285° (WNW) 11:46:16 145.870
ANTELSAT 27 May 11:44:17 11:48:27 41° 261° (W) 11:52:33 437.575/2403.000
DUCHIFAT 1 27 May 11:51:03 11:54:44 29° 72° (ENE) 11:58:23 145.980
BEESAT 3 27 May 12:01:51 12:05:45 77° 116° (ESE) 12:09:41 437.485
JUGNU 27 May 12:06:37 12:10:03 16° 196° (SSW) 12:13:28 437.505
SRMSAT 27 May 12:09:13 12:14:06 27° 185° (S) 12:19:00 437.500
BUGSAT 1 27 May 12:11:14 12:14:33 23° 71° (ENE) 12:17:51 437.445
ESTCUBE 1 27 May 12:15:43 12:19:35 27° 97° (E) 12:23:25 437.505/2401.250
DANDE 27 May 12:17:02 12:20:36 19° 82° (E) 12:24:50 436.750
50 SAT 27 May 12:23:27 12:26:23 22° 97° (E) 12:29:18 437.505
CUSAT 1 27 May 12:23:53 12:29:33 62° 93° (E) 12:36:45 437.405
POPSAT HIP 1 27 May 12:28:06 12:32:21 81° 256° (WSW) 12:36:35 437.405
QB50P1 27 May 12:28:33 12:32:47 79° 259° (WSW) 12:37:02 145.935-145.965
QB50P2 27 May 12:30:44 12:34:58 69° 260° (W) 12:39:11 145.880/145.840
POLYITAN 1 27 May 12:33:12 12:37:26 67° 259° (W) 12:41:38 437.675
CUBEBUG 1 27 May 12:33:28 12:37:14 28° 97° (E) 12:40:58 437.445
JAS-2 27 May 12:34:59 12:40:39 25° 64° (ENE) 12:46:39 435.910
DX 1 27 May 12:35:34 12:39:03 23° 97° (E) 12:42:31 434.975-435.025
VELOX 1 27 May 12:39:17 12:43:15 32° 98° (E) 12:47:10 145.980
HUMSAT D 27 May 12:42:08 12:45:11 20° 289° (WNW) 12:48:15 437.325/437.525
NANOSAT C BR1 27 May 12:47:24 12:51:28 46° 260° (W) 12:55:32 145.865
SPROUT 27 May 13:02:25 13:05:43 22° 96° (E) 13:09:00 437.525
BEESAT 2 27 May 13:04:20 13:07:56 33° 302° (WNW) 13:11:33 435.950
AISAT 27 May 13:14:57 13:19:22 84° 285° (WNW) 13:23:45 437.250
UKube-1 27 May 13:24:45 13:29:05 79° 102° (ESE) 13:33:23 .
DUCHIFAT 1 27 May 13:27:44 13:30:24 16° 265° (W) 13:33:04 145.980
AIST 2 27 May 13:33:51 13:36:58 21° 110° (ESE) 13:40:05 435.215
BUGSAT 1 27 May 13:46:34 13:49:47 21° 263° (W) 13:53:01 437.445
ESTCUBE 1 27 May 13:52:46 13:56:11 21° 290° (WNW) 13:59:35 437.505/2401.250
Oscar 19 27 May 13:55:48 14:00:48 49° 73° (ENE) 14:05:48 437.125/150
50 SAT 27 May 13:57:27 13:59:54 17° 289° (WNW) 14:02:22 437.505
DANDE 27 May 13:57:59 14:02:42 41° 285° (WNW) 14:08:53 436.750
SRMSAT 27 May 13:58:56 14:02:44 18° 195° (SSW) 14:06:32 437.500
CUSAT 1 27 May 14:08:17 14:12:26 18° 293° (WNW) 14:17:09 437.405
CUBEBUG 1 27 May 14:10:15 14:13:17 19° 290° (WNW) 14:16:17 437.445
DX 1 27 May 14:11:43 14:15:05 22° 290° (WNW) 14:18:26 434.975-435.025
VELOX 1 27 May 14:16:34 14:19:25 17° 291° (WNW) 14:22:14 145.980
Gurwin Techsat 1B 27 May 14:16:38 14:21:15 31° 71° (ENE) 14:25:52 435.225
JAS-2 27 May 14:18:06 14:25:00 56° 261° (W) 14:32:35 435.910
SPROUT 27 May 14:38:13 14:41:32 23° 289° (WNW) 14:44:50 437.525
ITAMSAT 1 27 May 14:38:30 14:41:58 18° 67° (ENE) 14:45:26 435.822/435.867
AO-7 27 May 14:44:40 14:49:06 16° 56° (ENE) 14:53:32 29.400- 29.500
TISAT 1 27 May 15:02:43 15:06:41 45° 286° (WNW) 15:10:39 437.305
AIST 2 27 May 15:11:53 15:15:17 25° 304° (WNW) 15:18:42 435.215
AO-85 27 May 15:21:58 15:24:50 16° 51° (NE) 15:27:33 145.980
SWISSCUBE 27 May 15:37:06 15:41:53 68° 102° (ESE) 15:46:38 437.505
Oscar 19 27 May 15:37:27 15:40:17 15° 266° (W) 15:43:08 437.125/150
ITUPSAT 1 27 May 15:43:07 15:47:55 69° 102° (ESE) 15:52:42 437.325
Gurwin Techsat 1B 27 May 15:56:51 16:01:07 25° 263° (W) 16:05:25 435.225
BEESAT 27 May 16:06:54 16:11:37 62° 285° (WNW) 16:16:20 436.000
YUBILEINY 27 May 16:12:52 16:20:21 34° 86° (E) 16:27:50 435.215
ITAMSAT 1 27 May 16:16:13 16:21:03 41° 260° (W) 16:25:57 435.822/435.867
Cosmos 2491 27 May 16:18:42 16:27:28 74° 83° (E) 16:36:07 435.465 / 435.565
AO-7 27 May 16:32:25 16:40:42 88° 73° (ENE) 16:49:03 29.400- 29.500
AO-85 27 May 17:01:23 17:05:28 37° 249° (WSW) 17:09:15 145.980
KKS-1 27 May 17:05:23 17:09:46 64° 101° (E) 17:14:08 437.445
MOZHAYETS 4 27 May 17:19:25 17:24:02 69° 101° (E) 17:28:39
Cosmos 2504 27 May 17:22:40 17:27:43 21° 84° (E) 17:32:53 435.465 / 435.565
HORYU 2 27 May 17:24:30 17:28:50 57° 75° (ENE) 17:33:09 437.375
RS-15 27 May 17:38:26 17:49:20 64° 111° (ESE) 18:00:51 29.354- 29.394
BRITE-PL 27 May 17:40:24 17:42:14 12° 64° (ENE) 17:44:04 437.365/2234.400
STARS 27 May 17:41:29 17:45:51 83° 101° (E) 17:50:13 437.465
CUTE-I 27 May 17:52:56 17:55:16 13° 65° (ENE) 17:57:36 437.470
YUBILEINY 27 May 18:08:47 18:16:49 42° 282° (WNW) 18:24:55 435.215
Cosmos 2491 27 May 18:18:01 18:23:15 18° 279° (W) 18:28:29 435.465 / 435.565
AO-7 27 May 18:30:21 18:34:10 14° 266° (W) 18:38:01 29.400- 29.500
LilacSat-2 27 May 18:36:40 18:39:52 26° 73° (ENE) 18:43:03 437.200
NOAA 15 27 May 18:38:43 18:43:56 61° 74° (ENE) 18:49:10 137.62
NOAA 18 27 May 18:40:49 18:46:07 54° 73° (ENE) 18:51:25 137.9125
Cubesat XI-IV 27 May 18:43:27 18:48:28 44° 72° (ENE) 18:53:28 437.490
CUBESAT XI-V 27 May 18:44:27 18:49:07 61° 101° (E) 18:53:43 437.345
DOVE 4 27 May 18:54:25 18:56:50 13° 68° (ENE) 18:59:14 437.250
Cosmos 2504 27 May 19:13:30 19:20:25 51° 280° (W) 19:27:40 435.465 / 435.565
BRITE-PL 27 May 19:14:19 19:19:53 80° 258° (WSW) 19:25:37 437.365/2234.400
CUTE-I 27 May 19:29:29 19:34:43 62° 258° (WSW) 19:39:59 437.470
GOMX 1 27 May 19:39:26 19:44:56 88° 78° (ENE) 19:50:24 467.674
AUBIESAT-1 27 May 19:49:01 19:51:53 18° 68° (ENE) 19:54:38 437.475
RS-15 27 May 19:52:29 20:02:25 34° 312° (NW) 20:12:53 29.354- 29.394
CUTE 1.7 + AOD 2 27 May 19:52:59 19:54:07 11° 68° (ENE) 19:55:15 437.475
M-CUBED/EXP-1 PRIME 27 May 19:54:52 19:58:30 27° 69° (ENE) 20:01:55 437.505
HO-68 27 May 19:54:57 20:00:49 29° 66° (ENE) 20:06:41 435.675
STRAND 1 27 May 20:01:57 20:06:18 27° 97° (E) 20:10:38 437.568
LilacSat-2 27 May 20:12:01 20:14:08 14° 265° (W) 20:16:14 437.200
NOAA 15 27 May 20:21:59 20:23:59 12° 267° (W) 20:25:59 137.62
PCSat 27 May 20:22:05 20:27:31 85° 65° (ENE) 20:32:56 145.827
O/OREOS (USA 219) 27 May 20:23:10 20:27:32 51° 69° (ENE) 20:31:52 437.305
NOAA 18 27 May 20:24:03 20:26:59 15° 266° (W) 20:29:56 137.9125
CUBESAT XI-V 27 May 20:24:59 20:25:53 10° 294° (WNW) 20:26:48 437.345
Cubesat XI-IV 27 May 20:25:13 20:28:39 17° 265° (W) 20:32:04 437.490
DOVE 4 27 May 20:28:48 20:34:01 59° 260° (W) 20:39:05 437.250
ISS 27 May 20:35:26 20:37:34 16° 127° (SE) 20:39:43 145.825
CANX-2 27 May 20:58:01 21:02:12 89° 243° (WSW) 21:06:26 2200.000
CINEMA 3 27 May 20:59:43 21:04:34 89° 78° (ENE) 21:09:13 145.822/145.860
SEEDS 27 May 21:00:47 21:04:51 57° 76° (ENE) 21:08:58 437.485
AUBIESAT-1 27 May 21:22:33 21:26:11 27° 257° (WSW) 21:29:37 437.475
CUTE 1.7 + AOD 2 27 May 21:25:29 21:29:30 45° 261° (W) 21:33:32 437.475
BEESAT 2 27 May 21:27:30 21:30:47 24° 57° (ENE) 21:34:01 435.950
M-CUBED/EXP-1 PRIME 27 May 21:29:53 21:32:56 19° 258° (WSW) 21:35:52 437.505
Oscar 11 27 May 21:30:06 21:33:38 25° 72° (ENE) 21:37:10 145.826/435.025
STRAND 1 27 May 21:41:03 21:45:19 27° 290° (WNW) 21:49:36 437.568
HO-68 27 May 21:41:28 21:48:11 44° 260° (W) 21:54:58 435.675
ZACube-1 27 May 21:44:10 21:47:59 33° 74° (ENE) 21:51:45 437.345
COMPASS 1 27 May 21:46:53 21:50:53 51° 260° (W) 21:54:56 437.405
AAUSAT CUBESAT 2 27 May 21:49:16 21:53:19 62° 259° (W) 21:57:25 437.432
CUBEBUG 2 27 May 21:49:16 21:53:44 84° 259° (W) 21:58:04 437.445
AIST 1 27 May 21:52:17 21:56:36 63° 94° (E) 22:00:58
PHONESAT 2.4 27 May 21:55:29 21:58:35 57° 147° (SSE) 22:01:40 2401.200-2431.200
Cosmos 2499 27 May 21:58:13 22:02:13 16° 81° (E) 22:06:19 435.465 / 435.565
PRISM 27 May 21:58:26 22:02:37 87° 288° (WNW) 22:06:45 437.425
BEESAT 3 27 May 22:01:38 22:05:33 65° 245° (WSW) 22:09:26 437.485
GONETS M04 27 May 22:02:27 22:10:28 41° 88° (E) 22:18:25
ISS 27 May 22:10:54 22:13:48 29° 319° (NW) 22:16:43 145.825
UWE-3 27 May 22:17:53 22:22:09 55° 260° (W) 22:26:20 435.000/436.395/437.385
DELFI C3 27 May 22:18:52 22:22:36 42° 75° (ENE) 22:26:23 145.870
FUNcube-1 27 May 22:21:42 22:25:58 85° 256° (WSW) 22:30:10 145.935
UNISAT 6 27 May 23:00:44 23:03:46 19° 96° (E) 23:06:51 437.425
DANDE 27 May 23:01:16 23:06:43 19° 67° (ENE) 23:11:45 436.750
BEESAT 2 27 May 23:05:30 23:08:27 20° 250° (WSW) 23:11:21 435.950
CUSAT 1 27 May 23:05:53 23:12:37 35° 73° (ENE) 23:18:11 437.405
Oscar 11 27 May 23:06:34 23:09:40 20° 264° (W) 23:12:48 145.826/435.025
TIGRISAT 27 May 23:08:00 23:11:18 21° 97° (E) 23:14:38 435.000
ESTCUBE 1 27 May 23:11:29 23:13:41 14° 68° (ENE) 23:15:54 437.505/2401.250
ZACube-1 27 May 23:21:55 23:24:17 15° 265° (W) 23:26:38 437.345
CUBEBUG 1 27 May 23:25:43 23:27:44 13° 68° (ENE) 23:29:45 437.445
HUMSAT D 27 May 23:26:53 23:30:53 57° 259° (W) 23:34:55 437.325/437.525
DX 1 27 May 23:28:10 23:29:17 11° 67° (ENE) 23:30:24 434.975-435.025
VELOX 1 27 May 23:32:27 23:35:04 16° 68° (ENE) 23:37:43 145.980
PHONESAT 2.4 27 May 23:32:49 23:35:28 24° 342° (NNW) 23:38:06 2401.200-2431.200
AIST 2 27 May 23:37:33 23:41:26 38° 59° (ENE) 23:45:18 435.215
ANTELSAT 27 May 23:40:52 23:45:09 59° 101° (E) 23:49:29 437.575/2403.000
Cosmos 2499 27 May 23:47:15 23:54:19 67° 278° (W) 00:01:54 435.465 / 435.565
GONETS M04 27 May 23:59:21 00:07:10 35° 283° (WNW) 00:15:01
SO-50 28 May 00:03:44 00:07:38 24° 110° (ESE) 00:11:33 436.795
AISAT 28 May 00:06:45 00:10:58 42° 74° (ENE) 00:15:11 437.250
UKube-1 28 May 00:14:04 00:17:54 31° 72° (ENE) 00:21:44 .
POPSAT HIP 1 28 May 00:18:56 00:22:21 24° 97° (E) 00:25:43 437.405
QB50P1 28 May 00:19:17 00:22:44 24° 97° (E) 00:26:10 145.935-145.965
QB50P2 28 May 00:21:30 00:25:07 28° 97° (E) 00:28:44 145.880/145.840
POLYITAN 1 28 May 00:23:57 00:27:35 28° 98° (E) 00:31:13 437.675
50 SAT 28 May 00:29:01 00:32:37 88° 261° (W) 00:36:16 437.505
UNISAT 6 28 May 00:36:46 00:40:26 27° 288° (WNW) 00:44:09 437.425
RS-15 28 May 00:36:47 00:41:43 13° 25° (NNE) 00:46:39 29.354- 29.394
NANOSAT C BR1 28 May 00:37:12 00:41:07 39° 99° (E) 00:45:02 145.865
DANDE 28 May 00:42:06 00:50:28 78° 265° (W) 00:57:38 436.750
TIGRISAT 28 May 00:44:25 00:47:53 24° 288° (WNW) 00:51:23 435.000
ESTCUBE 1 28 May 00:45:47 00:50:04 43° 261° (W) 00:54:23 437.505/2401.250
CUSAT 1 28 May 00:48:12 00:54:29 32° 274° (W) 00:59:46 437.405
CUBEBUG 1 28 May 00:59:22 01:03:35 43° 261° (W) 01:07:50 437.445
DX 1 28 May 01:00:42 01:04:57 51° 259° (W) 01:09:14 434.975-435.025
VELOX 1 28 May 01:07:05 01:11:11 36° 261° (W) 01:15:19 145.980
PHONESAT 2.4 28 May 01:11:09 01:12:53 14° 359° (N) 01:14:37 2401.200-2431.200
DUCHIFAT 1 28 May 01:15:30 01:19:38 68° 284° (WNW) 01:23:46 145.980
AIST 2 28 May 01:17:34 01:19:32 13° 252° (WSW) 01:21:29 435.215
SPROUT 28 May 01:25:12 01:29:27 61° 259° (W) 01:33:42 437.525
BUGSAT 1 28 May 01:32:42 01:36:45 83° 102° (ESE) 01:40:45 437.445
JAS-2 28 May 01:35:17 01:41:33 32° 94° (E) 01:47:11 435.910
SO-50 28 May 01:43:36 01:47:56 31° 304° (WNW) 01:52:17 436.795
AISAT 28 May 01:45:33 01:47:33 13° 266° (W) 01:49:35 437.250
TISAT 1 28 May 01:48:27 01:52:36 60° 76° (ENE) 01:56:46 437.305
UKube-1 28 May 01:51:13 01:53:56 16° 265° (W) 01:56:39 .
POPSAT HIP 1 28 May 01:54:52 01:57:56 20° 289° (WNW) 02:01:01 437.405
QB50P1 28 May 01:55:17 01:58:18 20° 290° (WNW) 02:01:20 145.935-145.965
QB50P2 28 May 01:57:53 02:00:40 17° 290° (WNW) 02:03:28 145.880/145.840
POLYITAN 1 28 May 02:00:24 02:03:07 17° 290° (WNW) 02:05:51 437.675
Oscar 19 28 May 02:13:24 02:17:44 27° 97° (E) 02:22:02 437.125/150
NANOSAT C BR1 28 May 02:14:41 02:16:28 12° 292° (WNW) 02:18:14 145.865
DANDE 28 May 02:29:40 02:31:42 11° 282° (WNW) 02:33:42 436.750
YUBILEINY 28 May 02:33:48 02:35:27 11° 66° (ENE) 02:37:05 435.215
SWISSCUBE 28 May 02:38:13 02:42:39 41° 73° (ENE) 02:47:06 437.505
Gurwin Techsat 1B 28 May 02:38:54 02:42:39 19° 95° (E) 02:46:22 435.225
ITUPSAT 1 28 May 02:44:31 02:48:58 42° 73° (ENE) 02:53:27 437.325
RS-15 28 May 02:46:51 02:58:34 46° 54° (NE) 03:10:07 29.354- 29.394
PHONESAT 2.4 28 May 02:47:51 02:50:21 21° 16° (NNE) 02:52:51 2401.200-2431.200
BEESAT 28 May 03:07:32 03:12:17 81° 76° (ENE) 03:17:03 436.000
JAS-2 28 May 03:19:59 03:26:30 37° 292° (WNW) 03:32:24 435.910
Cosmos 2491 28 May 03:21:04 03:25:33 15° 80° (E) 03:30:01 435.465 / 435.565
Oscar 19 28 May 03:52:39 03:56:54 27° 290° (WNW) 04:01:09 437.125/150
KKS-1 28 May 03:58:17 04:02:08 29° 72° (ENE) 04:06:00 437.445
MOZHAYETS 4 28 May 04:16:05 04:20:09 33° 73° (ENE) 04:24:14
Gurwin Techsat 1B 28 May 04:17:44 04:22:39 39° 288° (WNW) 04:27:33 435.225
SWISSCUBE 28 May 04:17:51 04:20:32 15° 265° (W) 04:23:15 437.505
PHONESAT 2.4 28 May 04:24:12 04:27:19 74° 211° (SSW) 04:30:24 2401.200-2431.200
ITUPSAT 1 28 May 04:24:19 04:26:55 15° 266° (W) 04:29:32 437.325
YUBILEINY 28 May 04:24:46 04:33:33 76° 84° (E) 04:42:20 435.215
STARS 28 May 04:32:46 04:36:47 35° 73° (ENE) 04:40:49 437.465
ITAMSAT 1 28 May 04:34:10 04:39:23 75° 284° (WNW) 04:44:35 435.822/435.867
JUGNU 28 May 04:40:16 04:41:02 10° 160° (SSE) 04:41:49 437.505
AO-7 28 May 04:40:32 04:48:23 43° 101° (ESE) 04:56:10 29.400- 29.500
ISS 28 May 04:42:55 04:45:24 20° 37° (NE) 04:47:53 145.825
RS-15 28 May 04:59:30 05:11:00 48° 252° (WSW) 05:22:19 29.354- 29.394
Cosmos 2504 28 May 05:10:59 05:19:04 43° 79° (E) 05:27:20 435.465 / 435.565
Cosmos 2491 28 May 05:12:21 05:21:11 83° 275° (W) 05:30:04 435.465 / 435.565
HORYU 2 28 May 05:21:58 05:24:50 17° 96° (E) 05:27:41 437.375
AO-85 28 May 05:29:31 05:33:41 23° 109° (ESE) 05:37:53 145.980
KKS-1 28 May 05:35:31 05:38:39 19° 264° (W) 05:41:49 437.445
CUBESAT XI-V 28 May 05:42:29 05:46:34 31° 72° (ENE) 05:50:41 437.345
MOZHAYETS 4 28 May 05:54:24 05:57:20 17° 265° (W) 06:00:16
STARS 28 May 06:10:41 06:13:12 15° 265° (W) 06:15:42 437.465
ISS 28 May 06:19:02 06:21:50 26° 231° (SW) 06:24:36 145.825
YUBILEINY 28 May 06:24:15 06:29:17 17° 279° (W) 06:34:21 435.215
JUGNU 28 May 06:25:02 06:29:27 21° 168° (SSE) 06:33:53 437.505
AO-7 28 May 06:33:31 06:40:52 36° 296° (WNW) 06:48:14 29.400- 29.500
HORYU 2 28 May 06:57:27 07:01:23 32° 288° (WNW) 07:05:20 437.375
NOAA 15 28 May 06:59:44 07:04:35 36° 99° (E) 07:09:23 137.62
Cosmos 2504 28 May 07:04:41 07:12:07 34° 273° (W) 07:19:48 435.465 / 435.565
Cubesat XI-IV 28 May 07:06:30 07:11:04 28° 97° (E) 07:15:36 437.490
NOAA 18 28 May 07:08:34 07:13:35 36° 99° (E) 07:18:37 137.9125
AO-85 28 May 07:08:51 07:13:56 40° 302° (WNW) 07:19:00 145.980
STRAND 1 28 May 07:12:58 07:16:52 23° 69° (ENE) 07:20:46 437.568
Cosmos 2491 28 May 07:15:57 07:19:13 12° 293° (WNW) 07:22:29 435.465 / 435.565
CUBESAT XI-V 28 May 07:20:36 07:23:55 19° 265° (W) 07:27:16 437.345
BRITE-PL 28 May 07:25:54 07:30:44 53° 99° (E) 07:35:11 437.365/2234.400
GOMX 1 28 May 07:48:06 07:52:19 37° 97° (E) 07:56:17 467.674
LilacSat-2 28 May 07:48:47 07:52:33 89° 70° (ENE) 07:56:21 437.200
CUTE-I 28 May 07:51:58 07:57:20 84° 103° (ESE) 08:02:43 437.470
JUGNU 28 May 08:12:54 08:17:58 28° 178° (S) 08:23:01 437.505
SRMSAT 28 May 08:19:41 08:23:52 20° 167° (SSE) 08:28:02 437.500
GONETS M04 28 May 08:22:09 08:26:02 13° 68° (ENE) 08:29:54
DOVE 4 28 May 08:33:57 08:38:10 56° 100° (E) 08:42:14 437.250
NOAA 15 28 May 08:40:07 08:44:03 22° 292° (WNW) 08:48:00 137.62
PRISM 28 May 08:42:40 08:46:17 30° 72° (ENE) 08:49:56 437.425
Cubesat XI-IV 28 May 08:46:29 08:51:00 28° 290° (WNW) 08:55:30 437.490
CANX-2 28 May 08:49:02 08:52:29 23° 96° (E) 08:55:55 2200.000
NOAA 18 28 May 08:49:45 08:53:58 23° 292° (WNW) 08:58:11 137.9125
STRAND 1 28 May 08:51:18 08:55:48 32° 262° (W) 09:00:20 437.568
SEEDS 28 May 08:51:27 08:53:53 15° 94° (E) 08:56:17 437.485
O/OREOS (USA 219) 28 May 08:53:39 08:55:16 12° 99° (E) 08:56:54 437.305
CINEMA 3 28 May 09:00:32 09:04:07 28° 97° (E) 09:07:44 145.822/145.860
AUBIESAT-1 28 May 09:06:29 09:09:14 24° 103° (ESE) 09:12:02 437.475
BRITE-PL 28 May 09:06:35 09:08:34 12° 295° (WNW) 09:10:29 437.365/2234.400
M-CUBED/EXP-1 PRIME 28 May 09:13:25 09:16:30 40° 104° (ESE) 09:19:38 437.505
HO-68 28 May 09:14:43 09:21:38 50° 101° (E) 09:28:32 435.675
CUTE 1.7 + AOD 2 28 May 09:15:37 09:19:43 44° 99° (E) 09:23:48 437.475
PCSat 28 May 09:16:07 09:20:22 24° 106° (ESE) 09:24:39 145.827
GOMX 1 28 May 09:27:35 09:29:59 14° 293° (WNW) 09:32:18 467.674
